Regional Weather Roundup
Issued by NWS

Home | Current Version | Previous Version | Text Only | Print | Product List | Glossary On
Versions: 1 2 3 4 5 6 7 8 9 10 11 12 13 14 15 16 17 18 19 20 21 22 23 24 25 26 27 28 29 30 31 32 33 34 35 36 37 38 39 40 41 42 43 44 45 46 47 48 49 50
000
ASUS45 KBOI 231410
RWRID
WEATHER ROUNDUP FOR IDAHO
NATIONAL WEATHER SERVICE BOISE ID
700 AM MST SUN NOV 23 2014

NOTE: "FAIR" INDICATES FEW OR NO CLOUDS BELOW 12000 FEET
WITH NO SIGNIFICANT WEATHER AND/OR OBSTRUCTIONS TO VISIBILITY

IDZ012-014-231500-
SOUTHWEST IDAHO


CITY           SKY/WX    TMP DP  RH WIND       PRES   REMARKS
BOISE          CLOUDY    29  25  85 CALM      30.28R
CALDWELL       NOT AVBL
MOUNTAIN HOME  CLEAR     30  30  99 N7        30.27R WCI  23
$$

IDZ016-017-231500-
SOUTHCENTRAL IDAHO


CITY           SKY/WX    TMP DP  RH WIND       PRES   REMARKS
BURLEY         CLEAR     30  24  78 W17G24    30.15R WCI  18
JEROME         CLEAR     30  24  78 SW17G24   30.20R WCI  18
TWIN FALLS     CLEAR     31  23  72 SW20      30.21R WCI  19
$$

IDZ019>023-231500-
SOUTHEAST IDAHO


CITY           SKY/WX    TMP DP  RH WIND       PRES   REMARKS
IDAHO FALLS    CLEAR     26  22  84 S7        30.05R WCI  18
POCATELLO      PTCLDY    29  26  89 SW17      30.11R WCI  17
REXBURG        CLEAR     23  21  92 S9        30.03R WCI  13
$$

IDZ006-010-011-018-031-032-231500-
CENTRAL IDAHO MOUNTAINS


CITY           SKY/WX    TMP DP  RH WIND       PRES   REMARKS
MCCALL         CLOUDY    27  23  85 SE3       30.15R
HAILEY         CLEAR     27  14  59 NW8       30.11R WCI  18
STANLEY          N/A     21  14  74 CALM      30.13R
SALMON         CLOUDY    27  25  93 CALM      30.09R
CHALLIS        CLOUDY    20  13  74 W5        30.09R WCI  13
$$

IDZ002-004-006-007-026-231500-
NORTHERN IDAHO


CITY           SKY/WX    TMP DP  RH WIND       PRES   REMARKS
LEWISTON       CLEAR     38  30  73 SE5       30.19R WCI  34
LOWELL           N/A     34  33  96 CALM      30.24R
COEUR D`ALENE  MOCLDY    30  28  93 CALM      30.12R
MULLAN PASS    FOG       24  21  88 VRB6      30.00R VSB 1   WCI  17
$$



USA.gov is the U.S. government's official web portal to all federal, state and local government web resources and services.